DAL1739 KPHX-KSLC

Flight info

Callsign DAL1739
Flight time 1h 21m
Altitude 32000
Route QUAKY1 GCN BCE QWENN6
Aircraft A321/M-SDE3FGHIRWY/LB1

Departure

Time 2026-05-07 02:20
Airport Phoenix Sky Harbor International Airport (KPHX)

Arrival

Time 2026-05-07 03:41
Airport Salt Lake City International Airport (KSLC)
Time Latitude Longitude Altitude Speed Heading
2026-05-07 02:07 33.43414 -112.01218 1123 ft 0 kts 93°
2026-05-07 02:13 33.43413 -112.01246 1120 ft 4 kts 78°
2026-05-07 02:13 33.43409 -112.01271 1121 ft 3 kts 86°
2026-05-07 02:13 33.43411 -112.01279 1120 ft 4 kts 127°
2026-05-07 02:14 33.43416 -112.01287 1121 ft 0 kts 109°
2026-05-07 02:15 33.43414 -112.01282 1121 ft 3 kts 115°
2026-05-07 02:15 33.43380 -112.01257 1120 ft 9 kts 169°
2026-05-07 02:16 33.43295 -112.01245 1119 ft 13 kts 144°
2026-05-07 02:16 33.43233 -112.01189 1111 ft 11 kts 146°
2026-05-07 02:16 33.43215 -112.01100 1117 ft 15 kts 91°
2026-05-07 02:16 33.43214 -112.00934 1117 ft 25 kts 89°
2026-05-07 02:17 33.43214 -112.00700 1118 ft 29 kts 90°
2026-05-07 02:17 33.43214 -112.00461 1118 ft 28 kts 90°
2026-05-07 02:17 33.43214 -112.00233 1118 ft 27 kts 90°
2026-05-07 02:17 33.43214 -112.00014 1117 ft 26 kts 90°
2026-05-07 02:18 33.43213 -111.99801 1124 ft 25 kts 90°
2026-05-07 02:18 33.43213 -111.99600 1121 ft 24 kts 90°
2026-05-07 02:18 33.43213 -111.99410 1119 ft 20 kts 90°
2026-05-07 02:18 33.43159 -111.99345 1118 ft 11 kts 179°
2026-05-07 02:19 33.43105 -111.99381 1122 ft 10 kts 256°
2026-05-07 02:19 33.43105 -111.99579 1124 ft 53 kts 270°
2026-05-07 02:19 33.43105 -112.00284 1125 ft 114 kts 270°
2026-05-07 02:19 33.43105 -112.01434 1124 ft 160 kts 270°
2026-05-07 02:20 33.43118 -112.02868 1442 ft 173 kts 271°
2026-05-07 02:20 33.43152 -112.04306 2075 ft 173 kts 271°
2026-05-07 02:20 33.43190 -112.05752 2646 ft 175 kts 272°
2026-05-07 02:20 33.43234 -112.07207 3215 ft 175 kts 272°
2026-05-07 02:21 33.43273 -112.08694 3516 ft 187 kts 271°
2026-05-07 02:21 33.43305 -112.10315 3731 ft 202 kts 271°
2026-05-07 02:21 33.43345 -112.12061 3981 ft 218 kts 272°
2026-05-07 02:21 33.43396 -112.13945 4267 ft 237 kts 272°
2026-05-07 02:22 33.43450 -112.15956 4837 ft 245 kts 272°
2026-05-07 02:22 33.43667 -112.17974 5525 ft 244 kts 294°
2026-05-07 02:22 33.44728 -112.19515 6172 ft 245 kts 331°
2026-05-07 02:22 33.46366 -112.20009 6897 ft 244 kts 355°
2026-05-07 02:23 33.48084 -112.20009 7570 ft 249 kts
2026-05-07 02:23 33.49823 -112.19862 8276 ft 251 kts
2026-05-07 02:23 33.51568 -112.19738 9025 ft 252 kts
2026-05-07 02:23 33.53318 -112.19539 9746 ft 253 kts 14°
2026-05-07 02:24 33.55088 -112.19002 10065 ft 270 kts 16°
2026-05-07 02:24 33.56977 -112.18422 10267 ft 292 kts 16°
2026-05-07 02:24 33.59026 -112.17805 10400 ft 314 kts 16°
2026-05-07 02:24 33.61124 -112.16923 10816 ft 323 kts 29°
2026-05-07 02:25 33.62934 -112.15316 11415 ft 327 kts 45°
2026-05-07 02:25 33.64509 -112.13334 12063 ft 330 kts 47°
2026-05-07 02:25 33.66097 -112.11320 12671 ft 335 kts 46°
2026-05-07 02:25 33.67710 -112.09272 13265 ft 340 kts 47°
2026-05-07 02:26 33.69340 -112.07196 13891 ft 344 kts 47°
2026-05-07 02:26 33.70986 -112.05095 14474 ft 347 kts 47°
2026-05-07 02:26 33.72657 -112.02985 15060 ft 350 kts 44°
2026-05-07 02:26 33.74573 -112.01176 15634 ft 353 kts 32°
2026-05-07 02:27 33.76799 -111.99891 16185 ft 357 kts 20°
2026-05-07 02:27 33.79232 -111.99205 16744 ft 362 kts 10°
2026-05-07 02:27 33.81737 -111.98741 17300 ft 366 kts 11°
2026-05-07 02:27 33.84266 -111.98267 17874 ft 369 kts 11°
2026-05-07 02:28 33.86812 -111.97784 18390 ft 373 kts 11°
2026-05-07 02:28 33.89384 -111.97294 18873 ft 375 kts 11°
2026-05-07 02:28 33.91970 -111.96802 19361 ft 378 kts 11°
2026-05-07 02:28 33.94572 -111.96310 19877 ft 380 kts 11°
2026-05-07 02:29 33.97190 -111.95816 20375 ft 381 kts 11°
2026-05-07 02:29 33.99816 -111.95316 20859 ft 383 kts 11°
2026-05-07 02:29 34.02424 -111.94818 21337 ft 385 kts 11°
2026-05-07 02:29 34.05082 -111.94312 21807 ft 387 kts 11°
2026-05-07 02:30 34.07754 -111.93813 22252 ft 390 kts
2026-05-07 02:30 34.10517 -111.93700 22724 ft 395 kts 359°
2026-05-07 02:30 34.13271 -111.93998 23185 ft 398 kts 357°
2026-05-07 02:30 34.16029 -111.94309 23620 ft 400 kts 357°
2026-05-07 02:31 34.18775 -111.94617 23979 ft 402 kts 358°
2026-05-07 02:31 34.21568 -111.94924 24343 ft 404 kts 358°
2026-05-07 02:31 34.24377 -111.95230 24666 ft 407 kts 358°
2026-05-07 02:31 34.27205 -111.95536 25027 ft 409 kts 358°
2026-05-07 02:32 34.30049 -111.95848 25395 ft 411 kts 358°
2026-05-07 02:32 34.32901 -111.96165 25757 ft 413 kts 358°
2026-05-07 02:32 34.35773 -111.96483 26113 ft 415 kts 358°
2026-05-07 02:32 34.38653 -111.96802 26467 ft 417 kts 359°
2026-05-07 02:33 34.41549 -111.97123 26818 ft 418 kts 359°
2026-05-07 02:33 34.44450 -111.97443 27154 ft 420 kts 359°
2026-05-07 02:33 34.47367 -111.97765 27482 ft 421 kts 359°
2026-05-07 02:33 34.50295 -111.98092 27826 ft 423 kts 359°
2026-05-07 02:34 34.53230 -111.98415 28157 ft 425 kts 359°
2026-05-07 02:34 34.56183 -111.98735 28488 ft 427 kts 359°
2026-05-07 02:34 34.59146 -111.99060 28825 ft 429 kts 359°
2026-05-07 02:34 34.62121 -111.99392 29148 ft 430 kts 359°
2026-05-07 02:35 34.65107 -111.99726 29466 ft 432 kts 359°
2026-05-07 02:35 34.68111 -112.00062 29770 ft 434 kts 359°
2026-05-07 02:35 34.71120 -112.00396 30069 ft 435 kts 358°
2026-05-07 02:35 34.74145 -112.00732 30372 ft 436 kts 358°
2026-05-07 02:36 34.77167 -112.01069 30640 ft 437 kts 358°
2026-05-07 02:36 34.80197 -112.01408 30918 ft 438 kts 358°
2026-05-07 02:36 34.83227 -112.01751 31282 ft 436 kts 358°
2026-05-07 02:36 34.86244 -112.02092 31636 ft 435 kts 358°
2026-05-07 02:37 34.89256 -112.02433 31954 ft 435 kts 358°
2026-05-07 02:37 34.92264 -112.02771 32042 ft 429 kts 358°
2026-05-07 02:37 34.95198 -112.03104 32051 ft 418 kts 358°
2026-05-07 02:37 34.98079 -112.03433 32051 ft 414 kts 358°
2026-05-07 02:38 35.03802 -112.04082 32037 ft 413 kts 358°
2026-05-07 02:38 35.09511 -112.04719 32063 ft 412 kts 358°
2026-05-07 02:39 35.15219 -112.05362 32060 ft 412 kts 358°
2026-05-07 02:39 35.20922 -112.06007 32167 ft 411 kts 358°
2026-05-07 02:40 35.26614 -112.06657 32186 ft 411 kts 358°
2026-05-07 02:40 35.32308 -112.07308 32189 ft 410 kts 358°
2026-05-07 02:41 35.37993 -112.07964 32179 ft 410 kts 358°
2026-05-07 02:41 35.43649 -112.08541 32167 ft 410 kts 358°
2026-05-07 02:42 35.49335 -112.09091 32142 ft 410 kts 358°
2026-05-07 02:42 35.55016 -112.09648 32114 ft 409 kts 358°
2026-05-07 02:43 35.60689 -112.10314 32021 ft 410 kts 357°
2026-05-07 02:43 35.65403 -112.10904 32016 ft 409 kts 357°
2026-05-07 02:44 35.71061 -112.11601 32003 ft 408 kts 357°
2026-05-07 02:44 35.76716 -112.12282 31986 ft 408 kts 357°
2026-05-07 02:45 35.82364 -112.12961 31979 ft 407 kts 357°
2026-05-07 02:45 35.88002 -112.13646 32191 ft 406 kts 357°
2026-05-07 02:46 35.93630 -112.14322 32191 ft 406 kts 357°
2026-05-07 02:46 35.99249 -112.14954 32190 ft 405 kts 358°
2026-05-07 02:47 36.04863 -112.15446 32185 ft 404 kts 359°
2026-05-07 02:47 36.10477 -112.15910 32159 ft 404 kts 358°
2026-05-07 02:48 36.16088 -112.16398 32133 ft 404 kts 358°
2026-05-07 02:48 36.21692 -112.16897 32108 ft 404 kts 358°
2026-05-07 02:49 36.27299 -112.17412 32076 ft 403 kts 358°
2026-05-07 02:49 36.32891 -112.17919 32055 ft 403 kts 358°
2026-05-07 02:50 36.38488 -112.18417 32052 ft 403 kts 358°
2026-05-07 02:50 36.44080 -112.18914 32053 ft 403 kts 358°
2026-05-07 02:51 36.49672 -112.19424 32053 ft 403 kts 358°
2026-05-07 02:51 36.55261 -112.19941 32063 ft 403 kts 358°
2026-05-07 02:52 36.60848 -112.20451 32069 ft 402 kts 358°
2026-05-07 02:52 36.66429 -112.20948 32066 ft 402 kts 358°
2026-05-07 02:53 36.72002 -112.21431 32051 ft 401 kts 358°
2026-05-07 02:53 36.77572 -112.21936 32050 ft 401 kts 358°
2026-05-07 02:54 36.83148 -112.22450 32038 ft 401 kts 358°
2026-05-07 02:54 36.88715 -112.22957 32022 ft 401 kts 358°
2026-05-07 02:55 36.94244 -112.23460 32025 ft 401 kts 358°
2026-05-07 02:55 36.99814 -112.23968 32021 ft 401 kts 358°
2026-05-07 02:56 37.05381 -112.24481 32024 ft 401 kts 358°
2026-05-07 02:56 37.10947 -112.24996 32021 ft 401 kts 358°
2026-05-07 02:57 37.16508 -112.25512 32022 ft 401 kts 358°
2026-05-07 02:57 37.22072 -112.26028 32032 ft 401 kts 357°
2026-05-07 02:58 37.27630 -112.26540 32034 ft 400 kts 357°
2026-05-07 02:58 37.33191 -112.27049 32041 ft 400 kts 357°
2026-05-07 02:59 37.38737 -112.27564 32060 ft 399 kts 357°
2026-05-07 02:59 37.44247 -112.28071 32112 ft 399 kts 357°
2026-05-07 03:00 37.49778 -112.28586 32149 ft 399 kts 357°
2026-05-07 03:00 37.55313 -112.29104 32189 ft 398 kts 356°
2026-05-07 03:01 37.60846 -112.29625 32233 ft 398 kts 357°
2026-05-07 03:01 37.66380 -112.30139 32247 ft 399 kts 357°
2026-05-07 03:02 37.71912 -112.30680 32249 ft 399 kts 356°
2026-05-07 03:02 37.77441 -112.31382 32231 ft 399 kts 355°
2026-05-07 03:03 37.82966 -112.32109 32203 ft 399 kts 355°
2026-05-07 03:03 37.88494 -112.32801 32174 ft 400 kts 355°
2026-05-07 03:04 37.93999 -112.33465 32150 ft 400 kts 355°
2026-05-07 03:04 37.99544 -112.34142 32099 ft 400 kts 355°
2026-05-07 03:05 38.05086 -112.34830 32103 ft 400 kts 355°
2026-05-07 03:05 38.10629 -112.35518 32127 ft 400 kts 355°
2026-05-07 03:06 38.16163 -112.36206 32126 ft 399 kts 355°
2026-05-07 03:06 38.21693 -112.36893 32131 ft 399 kts 355°
2026-05-07 03:07 38.27209 -112.37578 32130 ft 398 kts 355°
2026-05-07 03:07 38.32727 -112.38263 32130 ft 398 kts 354°
2026-05-07 03:08 38.38246 -112.38946 32130 ft 398 kts 354°
2026-05-07 03:08 38.43765 -112.39630 32125 ft 398 kts 354°
2026-05-07 03:09 38.49281 -112.40320 32128 ft 399 kts 354°
2026-05-07 03:09 38.54805 -112.41009 32130 ft 398 kts 354°
2026-05-07 03:10 38.60320 -112.41702 32126 ft 398 kts 354°
2026-05-07 03:10 38.65839 -112.42404 32129 ft 398 kts 354°
2026-05-07 03:11 38.71357 -112.43099 32168 ft 398 kts 354°
2026-05-07 03:11 38.76834 -112.43783 32189 ft 398 kts 354°
2026-05-07 03:12 38.82353 -112.44469 32206 ft 398 kts 354°
2026-05-07 03:12 38.87864 -112.45158 32222 ft 398 kts 354°
2026-05-07 03:13 38.93381 -112.45856 32216 ft 398 kts 354°
2026-05-07 03:13 38.98896 -112.46549 32217 ft 398 kts 354°
2026-05-07 03:14 39.04414 -112.47244 32205 ft 398 kts 354°
2026-05-07 03:15 39.12689 -112.48298 32182 ft 398 kts 354°
2026-05-07 03:15 39.18211 -112.48996 31968 ft 399 kts 354°
2026-05-07 03:15 39.20972 -112.49345 31699 ft 398 kts 354°
2026-05-07 03:16 39.23720 -112.49696 31440 ft 396 kts 354°
2026-05-07 03:16 39.26457 -112.50052 31171 ft 395 kts 354°
2026-05-07 03:16 39.29192 -112.50287 30920 ft 394 kts
2026-05-07 03:16 39.31916 -112.49935 30678 ft 394 kts
2026-05-07 03:17 39.34569 -112.49096 30451 ft 392 kts 12°
2026-05-07 03:17 39.37201 -112.48225 29964 ft 389 kts 12°
2026-05-07 03:17 39.39812 -112.47370 29424 ft 385 kts 12°
2026-05-07 03:17 39.42394 -112.46525 28913 ft 381 kts 12°
2026-05-07 03:18 39.44950 -112.45685 28436 ft 377 kts 12°
2026-05-07 03:18 39.47484 -112.44847 27917 ft 374 kts 12°
2026-05-07 03:18 39.49991 -112.44016 27427 ft 370 kts 12°
2026-05-07 03:18 39.52471 -112.43189 26956 ft 366 kts 12°
2026-05-07 03:19 39.54924 -112.42370 26499 ft 362 kts 12°
2026-05-07 03:19 39.57355 -112.41556 26044 ft 359 kts 12°
2026-05-07 03:19 39.59760 -112.40754 25608 ft 355 kts 12°
2026-05-07 03:19 39.62137 -112.39964 25181 ft 351 kts 12°
2026-05-07 03:20 39.64490 -112.39183 24758 ft 348 kts 12°
2026-05-07 03:20 39.66823 -112.38408 24342 ft 345 kts 12°
2026-05-07 03:20 39.69135 -112.37637 23931 ft 342 kts 13°
2026-05-07 03:20 39.71433 -112.36867 23460 ft 339 kts 13°
2026-05-07 03:21 39.73729 -112.36102 22954 ft 344 kts 13°
2026-05-07 03:21 39.76057 -112.35332 22469 ft 345 kts 12°
2026-05-07 03:21 39.78354 -112.34572 21968 ft 344 kts 12°
2026-05-07 03:21 39.80667 -112.33800 21477 ft 343 kts 12°
2026-05-07 03:22 39.82968 -112.33026 21006 ft 341 kts 12°
2026-05-07 03:22 39.85257 -112.32252 20537 ft 339 kts 13°
2026-05-07 03:22 39.87535 -112.31483 20072 ft 337 kts 12°
2026-05-07 03:22 39.89800 -112.30721 19617 ft 336 kts 12°
2026-05-07 03:23 39.92055 -112.29961 19167 ft 334 kts 12°
2026-05-07 03:23 39.94311 -112.29201 18732 ft 334 kts 13°
2026-05-07 03:23 39.96556 -112.28442 18270 ft 332 kts 13°
2026-05-07 03:23 39.98787 -112.27683 17766 ft 331 kts 13°
2026-05-07 03:24 40.01010 -112.26926 17286 ft 330 kts 12°
2026-05-07 03:24 40.03228 -112.26171 16784 ft 328 kts 12°
2026-05-07 03:24 40.05395 -112.25431 16293 ft 314 kts 12°
2026-05-07 03:24 40.07462 -112.24728 15825 ft 301 kts 12°
2026-05-07 03:25 40.09464 -112.24053 15371 ft 296 kts 12°
2026-05-07 03:25 40.11474 -112.23380 14929 ft 299 kts 12°
2026-05-07 03:25 40.13491 -112.22703 14473 ft 300 kts 12°
2026-05-07 03:25 40.15520 -112.22020 14019 ft 301 kts 12°
2026-05-07 03:26 40.17554 -112.21334 13540 ft 303 kts 12°
2026-05-07 03:26 40.19591 -112.20644 13087 ft 299 kts 12°
2026-05-07 03:26 40.21560 -112.19969 12827 ft 289 kts 12°
2026-05-07 03:26 40.23482 -112.19309 12907 ft 285 kts 13°
2026-05-07 03:27 40.25409 -112.18648 12968 ft 286 kts 12°
2026-05-07 03:27 40.26696 -112.18209 12974 ft 295 kts 13°
2026-05-07 03:27 40.28732 -112.17517 12970 ft 307 kts 12°
2026-05-07 03:27 40.30811 -112.16814 12971 ft 309 kts 12°
2026-05-07 03:28 40.32898 -112.16107 12977 ft 310 kts 13°
2026-05-07 03:28 40.34993 -112.15398 12982 ft 311 kts 12°
2026-05-07 03:28 40.37082 -112.14689 12985 ft 311 kts 12°
2026-05-07 03:28 40.39172 -112.13974 12993 ft 311 kts 13°
2026-05-07 03:29 40.41261 -112.13258 12995 ft 310 kts 13°
2026-05-07 03:29 40.43348 -112.12542 13007 ft 310 kts 13°
2026-05-07 03:29 40.45435 -112.11825 13012 ft 310 kts 13°
2026-05-07 03:29 40.47524 -112.11108 13014 ft 310 kts 13°
2026-05-07 03:30 40.49614 -112.10395 13019 ft 310 kts 13°
2026-05-07 03:30 40.51703 -112.09686 13025 ft 310 kts 13°
2026-05-07 03:30 40.53790 -112.08981 13033 ft 310 kts 12°
2026-05-07 03:30 40.55895 -112.08361 13007 ft 310 kts
2026-05-07 03:31 40.58035 -112.08156 12706 ft 308 kts
2026-05-07 03:31 40.60171 -112.08011 12436 ft 306 kts
2026-05-07 03:31 40.62297 -112.07872 12169 ft 306 kts
2026-05-07 03:31 40.64411 -112.07926 12024 ft 304 kts 354°
2026-05-07 03:32 40.66527 -112.08190 12032 ft 305 kts 354°
2026-05-07 03:32 40.68644 -112.08443 11782 ft 304 kts 354°
2026-05-07 03:32 40.70754 -112.08689 11647 ft 304 kts 354°
2026-05-07 03:32 40.72859 -112.08931 11535 ft 303 kts 354°
2026-05-07 03:33 40.74965 -112.09175 11418 ft 303 kts 354°
2026-05-07 03:33 40.77053 -112.09418 11299 ft 297 kts 354°
2026-05-07 03:33 40.79070 -112.09655 11199 ft 284 kts 354°
2026-05-07 03:33 40.81000 -112.09882 11100 ft 273 kts 354°
2026-05-07 03:34 40.82848 -112.10098 11001 ft 261 kts 354°
2026-05-07 03:34 40.84632 -112.10309 10706 ft 255 kts 354°
2026-05-07 03:34 40.86383 -112.10518 10322 ft 251 kts 353°
2026-05-07 03:34 40.88101 -112.10724 9976 ft 245 kts 353°
2026-05-07 03:35 40.89741 -112.10919 9608 ft 232 kts 353°
2026-05-07 03:35 40.91291 -112.11101 9332 ft 214 kts 353°
2026-05-07 03:35 40.92760 -112.11275 9057 ft 207 kts 353°
2026-05-07 03:35 40.94171 -112.11255 8723 ft 206 kts
2026-05-07 03:36 40.95500 -112.10552 8342 ft 209 kts 30°
2026-05-07 03:36 40.96543 -112.09206 7975 ft 212 kts 53°
2026-05-07 03:36 40.97120 -112.07408 7607 ft 215 kts 77°
2026-05-07 03:36 40.97120 -112.05436 7318 ft 216 kts 100°
2026-05-07 03:37 40.96543 -112.03617 7109 ft 216 kts 123°
2026-05-07 03:37 40.95490 -112.02228 6892 ft 214 kts 146°
2026-05-07 03:37 40.94152 -112.01501 6664 ft 204 kts 169°
2026-05-07 03:37 40.92753 -112.01321 6452 ft 198 kts 175°
2026-05-07 03:38 40.91421 -112.01171 6274 ft 187 kts 175°
2026-05-07 03:38 40.90157 -112.01026 6066 ft 178 kts 175°
2026-05-07 03:38 40.88971 -112.00888 5866 ft 164 kts 175°
2026-05-07 03:38 40.87860 -112.00756 5620 ft 158 kts 175°
2026-05-07 03:39 40.86782 -112.00629 5393 ft 154 kts 174°
2026-05-07 03:39 40.85714 -112.00517 5199 ft 154 kts 174°
2026-05-07 03:39 40.84653 -112.00414 5051 ft 152 kts 173°
2026-05-07 03:39 40.83603 -112.00294 4903 ft 152 kts 174°
2026-05-07 03:40 40.82560 -112.00154 4647 ft 150 kts 173°
2026-05-07 03:40 40.81534 -112.00015 4442 ft 147 kts 173°
2026-05-07 03:40 40.80503 -111.99901 4250 ft 147 kts 174°
2026-05-07 03:40 40.79583 -111.99793 4229 ft 109 kts 174°
2026-05-07 03:41 40.79010 -111.99724 4234 ft 58 kts 175°
2026-05-07 03:41 40.78704 -111.99690 4233 ft 31 kts 173°
2026-05-07 03:41 40.78544 -111.99631 4231 ft 20 kts 152°
2026-05-07 03:41 40.78448 -111.99521 4231 ft 15 kts 127°
2026-05-07 03:42 40.78421 -111.99398 4231 ft 14 kts 91°
2026-05-07 03:42 40.78410 -111.99281 4231 ft 12 kts 92°
2026-05-07 03:42 40.78413 -111.99173 4231 ft 11 kts 85°
2026-05-07 03:42 40.78420 -111.99073 4231 ft 10 kts 85°
2026-05-07 03:43 40.78426 -111.98985 4229 ft 9 kts 84°
2026-05-07 03:43 40.78431 -111.98906 4231 ft 8 kts 85°
2026-05-07 03:43 40.78463 -111.98872 4230 ft 6 kts
2026-05-07 03:43 40.78484 -111.98874 4231 ft 1 kts 355°
2026-05-07 03:44 40.78489 -111.98875 4231 ft 1 kts 355°
2026-05-07 03:44 40.78490 -111.98875 4231 ft 0 kts 355°